www.pogodaiklimat.ru
ПОГОДА в Каракуле

Архив погоды в Каракуле (Бухарская область, Узбекистан)

Время
и дата
06:10 28.05
06:20 28.05
06:30 28.05
06:40 28.05
07:00 28.05
07:10 28.05
07:20 28.05
07:40 28.05
07:50 28.05
08:00 28.05
08:10 28.05
08:20 28.05
08:30 28.05
08:40 28.05
08:50 28.05
09:10 28.05
09:30 28.05
09:40 28.05
09:50 28.05
10:00 28.05
10:20 28.05
10:30 28.05
10:40 28.05
10:50 28.05
11:00 28.05
11:10 28.05
11:20 28.05
11:30 28.05
11:40 28.05
11:50 28.05
12:00 28.05
12:10 28.05
12:20 28.05
12:30 28.05
13:00 28.05
13:10 28.05
13:20 28.05
13:30 28.05
13:40 28.05
13:50 28.05
14:10 28.05
14:20 28.05
14:30 28.05
14:40 28.05
14:50 28.05
15:00 28.05
15:10 28.05
15:20 28.05
15:30 28.05
15:40 28.05
15:50 28.05
16:00 28.05
16:10 28.05
16:20 28.05
16:30 28.05
16:40 28.05
16:50 28.05
17:00 28.05
17:10 28.05
17:20 28.05
17:40 28.05
17:50 28.05
18:00 28.05
18:10 28.05
18:20 28.05
18:30 28.05
18:40 28.05
18:50 28.05
19:00 28.05
19:10 28.05
19:20 28.05
19:30 28.05
19:40 28.05
19:50 28.05
20:00 28.05
20:10 28.05
20:20 28.05
20:30 28.05
20:40 28.05
20:50 28.05
21:00 28.05
21:10 28.05
21:20 28.05
21:30 28.05
21:40 28.05
21:50 28.05
22:10 28.05
22:20 28.05
22:30 28.05
22:40 28.05
22:50 28.05
23:00 28.05
23:10 28.05
23:20 28.05
23:30 28.05
23:50 28.05
00:00 29.05
00:10 29.05
00:20 29.05
00:30 29.05
00:40 29.05
01:00 29.05
01:10 29.05
01:20 29.05
01:30 29.05
01:40 29.05
01:50 29.05
02:00 29.05
02:10 29.05
02:20 29.05
02:30 29.05
02:40 29.05
02:50 29.05
03:00 29.05
03:10 29.05
03:20 29.05
03:30 29.05
03:40 29.05
03:50 29.05
04:00 29.05
04:10 29.05
04:20 29.05
04:30 29.05
04:40 29.05
04:50 29.05
05:00 29.05
05:10 29.05
05:20 29.05
05:30 29.05
05:40 29.05
05:50 29.05
06:00 29.05
06:10 29.05
06:20 29.05
06:30 29.05
06:40 29.05
06:50 29.05
07:00 29.05
07:10 29.05
07:20 29.05
07:30 29.05
07:40 29.05
07:50 29.05
08:00 29.05
Ветер
(напр.,м/с)
Видимость Явления Солнечная радиация
(Вт/м2)
Т
(С)
Тd
(С)
f
(%)
Тe
(С)
Тes
(С)
Комфортность P
(гПа)
Po
(гПа)
Тmin
(С)
Tmax
(С)
R
(мм)
В 1.0
{1.5}
+13.7 +13.7 100 +14 +14 1014.2 974.0 +13.7 +13.0
В 1.0
{1.5}
+14.6 +14.6 100 +15 +15 1014.2 974.0 +14.6 +13.7
В 0.8
{1.4}
+15.4 +15.4 100 +16 +16 1014.3 974.1 +15.3 +14.6
ЮВ 0.6
{1.3}
+16.4 +16.4 100 +18 +18 1014.3 974.1 +16.3 +15.4
Ю 0.9
{2.0}
+18.3 +18.3 100 +20 +20 1014.3 974.1 +18.3 +17.5
Ю 0.7
{2.1}
+19.1 +19.1 100 +22 +22 комфорт 1014.3 974.1 +19.1 +18.3
ЮВ 1.0
{2.4}
+19.4 +19.4 100 +23 +23 комфорт 1014.3 974.1 +19.4 +19.1
Ю 1.5
{2.7}
+20.5 +20.5 100 +26 +26 душно 1014.4 974.2 +20.5 +19.9
Ю 1.6
{3.2}
+20.8 +20.8 100 +27 +27 душно 1014.6 974.4 +20.8 +20.4
Ю 1.8
{3.6}
+21.2 +21.2 100 +27 +27 душно 1014.6 974.4 +21.2 +20.8
Ю 2.5
{4.2}
+21.4 +21.4 100 +27 +27 душно 1014.5 974.3 +21.4 +21.1
Ю 1.8
{4.0}
+22.1 +22.1 100 +29 +29 очень
душно
1014.6 974.4 +22.2 +21.4
Ю 2.1
{4.2}
+22.3 +22.3 100 +30 +30 очень
душно
1014.6 974.4 +22.4 +22.0
Ю 2.3
{4.0}
+22.6 +22.6 100 +31 +31 очень
душно
1014.5 974.3 +22.7 +22.3
Ю 2.1
{3.7}
+22.8 +22.8 100 +31 +31 очень
душно
1014.5 974.3 +22.9 +22.6
Ю 2.3
{3.8}
+23.6 +23.6 100 +32 +32 очень
душно
1014.5 974.3 +23.6 +23.0
Ю 2.3
{3.7}
+24.3 +24.3 100 +34 +34 очень
душно
1014.6 974.4 +24.3 +24.0
ЮЗ 1.7
{3.3}
+24.3 +24.3 100 +34 +34 очень
душно
1014.7 974.5 +24.3 +24.1
ЮЗ 2.2
{3.8}
+24.2 +24.2 100 +33 +33 очень
душно
1014.7 974.5 +24.3 +23.9
ЮЗ 2.5
{4.2}
+24.6 +24.6 100 +34 +34 очень
душно
1014.8 974.6 +24.6 +24.2
З 2.0
{4.4}
+25.3 +25.3 100 +36 +36 очень
душно
1014.8 974.6 +25.7 +25.1
З 1.7
{3.7}
+25.9 +25.9 100 +38 +38 очень
душно
1014.8 974.6 +25.9 +25.3
ЮЗ 1.8
{4.2}
+26.1 +26.1 100 +39 +39 очень
душно
1014.8 974.6 +26.1 +25.8
СЗ 1.7
{4.0}
+26.4 +26.4 100 +40 +40 очень
душно
1014.8 974.6 +26.4 +26.1
СЗ 1.8
{4.2}
+26.7 +26.7 100 +41 +41 очень
душно
1014.7 974.5 +26.7 +26.4
СЗ 1.4
{3.5}
+27.0 +27.0 100 +42 +42 очень
душно
1014.7 974.5 +27.1 +26.7
С 1.6
{3.2}
+27.5 +27.5 100 +44 +44 очень
душно
1014.6 974.4 +27.5 +27.0
С 2.1
{4.4}
+27.4 +27.4 100 +44 +44 очень
душно
1014.6 974.4 +27.6 +27.3
СЗ 2.3
{4.7}
+27.5 +27.5 100 +44 +44 очень
душно
1014.7 974.5 +27.6 +27.4
СЗ 2.3
{5.8}
+27.5 +27.5 100 +44 +44 очень
душно
1014.6 974.4 +27.6 +27.4
СЗ 3.0
{5.4}
+27.6 +27.6 100 +45 +45 очень
душно
1014.6 974.4 +27.6 +27.3
СЗ 2.7
{5.2}
+27.9 +27.9 100 +46 +46 очень
душно
1014.6 974.4 +28.0 +27.6
СЗ 3.0
{6.0}
+27.9 +27.9 100 +46 +46 очень
душно
1014.6 974.4 +27.9 +27.9
СЗ 2.9
{5.2}
+27.9 +27.9 100 +46 +46 очень
душно
1014.5 974.3 +28.0 +27.7
СЗ 2.9
{5.2}
+28.3 +28.3 100 +48 +48 очень
душно
1014.3 974.1 +28.5 +28.2
СЗ 3.0
{6.7}
+28.6 +28.6 100 +49 +49 очень
душно
1014.2 974.0 +28.7 +28.3
СЗ 3.1
{7.0}
+29.0 +29.0 100 +51 +51 очень
душно
1014.2 974.0 +29.0 +28.6
СЗ 2.6
{6.1}
+29.2 +29.2 100 +52 +52 очень
душно
1014.2 974.0 +29.2 +29.0
СЗ 2.7
{5.3}
+29.4 +29.4 100 +53 +53 очень
душно
1014.2 974.0 +29.4 +29.1
СЗ 2.5
{6.2}
+29.1 +29.1 100 +51 +51 очень
душно
1014.2 974.0 +29.4 +29.1
СЗ 3.5
{8.2}
+28.7 +28.7 100 +49 +49 очень
душно
1014.1 973.9 +29.2 +28.7
СЗ 3.4
{9.1}
+29.1 +29.1 100 +51 +51 очень
душно
1014.1 973.9 +29.2 +28.7
СЗ 4.0
{8.0}
+29.0 +29.0 100 +51 +51 очень
душно
1014.1 973.9 +29.1 +29.0
СЗ 3.0
{7.4}
+29.2 +29.2 100 +52 +52 очень
душно
1014.2 974.0 +29.2 +28.9
СЗ 3.7
{8.6}
+28.8 +28.8 100 +50 +50 очень
душно
1014.2 974.0 +29.2 +28.6
СЗ 3.5
{7.0}
+29.1 +29.1 100 +51 +51 очень
душно
1014.1 973.9 +29.1 +28.8
СЗ 2.8
{7.4}
+29.3 +29.3 100 +52 +52 очень
душно
1014.1 973.9 +29.4 +29.1
СЗ 3.0
{6.7}
+29.3 +29.3 100 +52 +52 очень
душно
1014.1 973.9 +29.4 +29.0
СЗ 3.0
{6.6}
+29.1 +29.1 100 +51 +51 очень
душно
1014.1 973.9 +29.3 +28.9
СЗ 2.9
{6.7}
+29.1 +29.1 100 +51 +51 очень
душно
1014.1 973.9 +29.2 +29.1
СЗ 2.5
{7.0}
+29.1 +29.1 100 +51 +51 очень
душно
1014.1 973.9 +29.1 +28.9
СЗ 2.9
{7.2}
+28.6 +28.6 100 +49 +49 очень
душно
1014.2 974.0 +29.1 +28.5
СЗ 3.6
{7.6}
+28.2 +28.2 100 +47 +47 очень
душно
1014.3 974.1 +28.7 +28.2
СЗ 3.7
{7.9}
+28.3 +28.3 100 +48 +48 очень
душно
1014.3 974.1 +28.3 +28.1
СЗ 3.5
{7.3}
+28.2 +28.2 100 +47 +47 очень
душно
1014.4 974.2 +28.3 +28.2
СЗ 2.6
{5.5}
+28.6 +28.6 100 +49 +49 очень
душно
1014.4 974.2 +28.6 +28.2
СЗ 1.6
{4.4}
+28.8 +28.8 100 +50 +50 очень
душно
1014.4 974.2 +28.8 +28.6
С 1.8
{4.5}
+28.5 +28.5 100 +48 +48 очень
душно
1014.4 974.2 +28.8 +28.5
СЗ 2.6
{6.0}
+28.1 +28.1 100 +47 +47 очень
душно
1014.4 974.2 +28.5 +28.0
СЗ 2.2
{6.1}
+27.8 +27.8 100 +45 +45 очень
душно
1014.4 974.2 +28.1 +27.8
СЗ 1.8
{5.0}
+27.9 +27.9 100 +46 +46 очень
душно
1014.5 974.3 +27.9 +27.7
СЗ 2.7
{5.9}
+27.4 +27.4 100 +44 +44 очень
душно
1014.6 974.4 +27.9 +27.4
СЗ 2.0
{4.0}
+27.3 +27.3 100 +43 +43 очень
душно
1014.5 974.3 +27.4 +27.3
СЗ 2.0
{4.4}
+27.2 +27.2 100 +43 +43 очень
душно
1014.6 974.4 +27.3 +27.2
СЗ 1.9
{3.4}
+27.1 +27.1 100 +43 +43 очень
душно
1014.6 974.4 +27.2 +27.1
СЗ 1.7
{3.6}
+26.9 +26.9 100 +42 +42 очень
душно
1014.7 974.5 +27.1 +26.9
СЗ 1.7
{3.0}
+26.5 +26.5 100 +40 +40 очень
душно
1014.8 974.6 +26.9 +26.5
СЗ 1.6
{3.4}
+26.1 +26.1 100 +39 +39 очень
душно
1014.8 974.6 +26.5 +26.1
СЗ 1.6
{2.8}
+25.3 +25.3 100 +36 +36 очень
душно
1014.8 974.6 +26.1 +25.3
СЗ 1.4
{2.6}
+24.3 +24.3 100 +34 +34 очень
душно
1014.9 974.7 +25.3 +24.3
СЗ 1.6
{3.1}
+23.6 +23.6 100 +32 +32 очень
душно
1015.0 974.8 +24.3 +23.6
СЗ 1.3
{3.4}
+22.9 +22.9 100 +32 +32 очень
душно
1015.1 974.9 +23.6 +23.0
СЗ 0.8
{2.0}
+22.1 +22.1 100 +29 +29 очень
душно
1015.1 974.9 +22.9 +22.1
СЗ 0.7
{1.7}
+21.3 +21.3 100 +27 +27 душно 1015.1 974.9 +22.1 +21.3
СЗ 0.8
{1.9}
+20.7 +20.7 100 +27 +27 душно 1015.2 975.0 +21.3 +20.7
СЗ 0.9
{2.0}
+19.9 +19.9 100 +24 +24 комфорт 1015.1 974.9 +20.7 +19.9
СЗ 0.5
{1.6}
+19.5 +19.5 100 +24 +24 комфорт 1015.2 975.0 +19.9 +19.5
СЗ 0.4
{1.2}
+19.3 +19.3 100 +23 +23 комфорт 1015.3 975.1 +19.5 +19.3
СЗ 0.8
{1.9}
+18.8 +18.8 100 +21 +21 комфорт 1015.3 975.1 +19.3 +18.8
СЗ 0.7
{1.6}
+18.3 +18.3 100 +20 +20 1015.4 975.2 +18.8 +18.3
СЗ 1.0
{2.0}
+18.0 +18.0 100 +19 +19 1015.6 975.4 +18.4 +18.0
С 0.5
{1.0}
+17.5 +17.5 100 +19 +19 1015.7 975.5 +18.0 +17.5
В 1.1
{1.7}
+16.7 +16.7 100 +17 +17 1015.7 975.5 +17.5 +16.7
СВ 0.8
{1.5}
+16.2 +16.2 100 +17 +17 1015.7 975.5 +16.7 +16.2
В 1.2
{1.7}
+15.4 +15.4 100 +16 +16 1015.8 975.6 +16.2 +15.4
СВ 1.3
{1.8}
+14.8 +14.8 100 +15 +15 1015.8 975.6 +15.4 +14.8
СВ 1.1
{1.6}
+14.8 +14.8 100 +15 +15 1015.7 975.5 +15.0 +14.8
СВ 0.9
{1.4}
+14.5 +14.5 100 +15 +15 1015.6 975.4 +14.8 +14.5
С 0.7
{1.5}
+14.3 +14.3 100 +15 +15 1015.7 975.5 +14.5 +14.3
С 0.4
{1.2}
+14.0 +14.0 100 +15 +15 1015.7 975.5 +14.3 +14.1
СВ 0.4
{1.1}
+13.9 +13.9 100 +15 +15 1015.7 975.5 +14.0 +13.9
В 0.8
{1.3}
+13.7 +13.7 100 +14 +14 1015.7 975.5 +13.9 +13.8
СВ 0.7
{1.2}
+13.4 +13.4 100 +14 +14 1015.7 975.5 +13.7 +13.4
В 1.1
{1.7}
+13.3 +13.3 100 +13 +13 1015.7 975.5 +13.5 +13.3
СВ 1.2
{2.1}
+12.8 +12.8 100 +12 +12 1015.7 975.5 +13.3 +12.8
С 0.8
{1.6}
+13.2 +13.2 100 +13 +13 1015.5 975.3 +13.2 +12.9
С 0.7
{2.0}
+13.1 +13.1 100 +13 +13 1015.5 975.3 +13.2 +13.1
СВ 0.5
{1.9}
+13.3 +13.3 100 +14 +14 1015.4 975.2 +13.3 +13.0
СВ 0.3
{1.1}
+13.3 +13.3 100 +15 +15 1015.4 975.2 +13.4 +13.3
З 0.3
{0.9}
+13.2 +13.2 100 +15 +15 1015.3 975.1 +13.3 +13.2
С 0.4
{1.0}
+13.1 +13.1 100 +14 +14 1015.3 975.1 +13.2 +13.1
С 0.6
{1.4}
+13.2 +13.2 100 +14 +14 1015.2 975.0 +13.6 +13.2
СВ 1.3
{1.8}
+13.0 +13.0 100 +13 +13 1015.2 975.0 +13.2 +13.0
С 0.7
{1.0}
+12.9 +12.9 100 +13 +13 1015.2 975.0 +13.0 +12.9
С 0.7
{1.1}
+12.7 +12.7 100 +13 +13 1015.1 974.9 +12.9 +12.7
С 0.7
{1.4}
+13.4 +13.4 100 +14 +14 1015.0 974.8 +13.4 +12.7
СВ 1.0
{1.7}
+13.0 +13.0 100 +13 +13 1015.0 974.8 +13.4 +13.0
С 1.1
{2.0}
+12.6 +12.6 100 +12 +12 1014.9 974.7 +13.0 +12.6
С 0.9
{1.7}
+12.5 +12.5 100 +12 +12 1014.9 974.7 +12.6 +12.4
С 0.9
{1.6}
+12.5 +12.5 100 +12 +12 1014.9 974.7 +12.6 +12.5
С 0.7
{1.3}
+12.3 +12.3 100 +13 +13 1014.9 974.7 +12.5 +12.3
СВ 0.5
{0.7}
+11.9 +11.9 100 +12 +12 1014.9 974.7 +12.3 +11.9
С 0.6
{1.0}
+11.9 +11.9 100 +12 +12 1014.9 974.7 +12.0 +11.9
СВ 0.7
{1.0}
+11.7 -0.6 42 +12 +12 1014.9 974.7 +11.9 +11.7
СВ 0.6
{1.0}
+11.4 -0.4 44 +12 +12 1014.8 974.6 +11.7 +11.4
ЮВ 0.8
{3.3}
+11.4 +11.4 100 +11 +11 1014.9 974.7 +11.4 +11.4
Ю 1.5
{3.9}
+11.8 +11.8 100 +11 +11 1015.0 974.8 +11.8 +11.4
Ю 0.7
{1.5}
+11.8 +11.8 100 +12 +12 1015.1 974.9 +11.9 +11.8
СЗ 0.4
{1.1}
+11.4 +11.3 99 +12 +12 1015.1 974.9 +11.8 +11.4
ЮВ 0.5
{1.1}
+11.3 +11.3 100 +12 +12 1015.1 974.9 +11.4 +11.3
ЮВ 1.1
{2.2}
+11.6 +11.6 100 +11 +11 1015.1 974.9 +11.6 +11.3
ЮВ 1.0
{2.3}
+11.6 +11.6 100 +11 +11 1015.2 975.0 +11.7 +11.5
ЮВ 1.2
{2.6}
+11.8 +11.8 100 +11 +11 1015.2 975.0 +11.8 +11.6
ЮВ 1.3
{2.7}
+11.9 +11.9 100 +11 +11 1015.3 975.1 +11.9 +11.8
ЮВ 1.6
{4.2}
+12.0 +9.9 87 +11 +11 1015.5 975.3 +12.0 +11.9
Ю 2.2
{4.4}
+12.4 +12.4 100 +11 +11 1015.7 975.5 +12.4 +12.0
Ю 1.8
{4.2}
+12.5 +12.5 100 +12 +12 1015.8 975.6 +12.5 +12.4
Ю 1.4
{3.0}
+12.5 +12.5 100 +12 +12 1016.0 975.8 +12.5 +12.5
Ю 1.2
{2.8}
+12.6 +12.6 100 +12 +12 1016.1 975.9 +12.6 +12.5
Ю 1.3
{3.2}
+13.0 +13.0 100 +13 +13 1016.3 976.0 +13.0 +12.6
Ю 1.3
{2.8}
+13.6 +13.6 100 +13 +13 1016.4 976.1 +13.6 +13.0
Ю 1.3
{2.8}
+14.2 +14.2 100 +14 +14 1016.4 976.1 +14.2 +13.6
Ю 1.4
{2.7}
+14.9 +14.9 100 +15 +15 1016.5 976.2 +14.9 +14.2
Ю 1.5
{2.8}
+15.5 +15.5 100 +16 +16 1016.5 976.2 +15.4 +14.9
Ю 1.6
{3.2}
+15.9 +15.9 100 +16 +16 1016.5 976.2 +15.9 +15.5
Ю 1.3
{2.8}
+16.3 +16.3 100 +17 +17 1016.5 976.2 +16.3 +15.9
Ю 1.3
{2.9}
+16.8 +16.8 100 +17 +17 1016.5 976.2 +16.8 +16.3
Ю 1.8
{3.9}
+17.1 +16.8 99 +17 +17 1016.5 976.2 +17.1 +16.8
Ю 2.1
{4.1}
+17.3 +15.8 91 +18 +18 1016.5 976.2 +17.2 +17.1
Ю 2.1
{4.3}
+17.5 +14.5 83 +18 +18 1016.5 976.2 +17.6 +17.3
Ю 1.4
{3.4}
+18.2 +15.5 84 +19 +19 1016.5 976.2 +18.2 +17.5
Ю 2.1
{4.3}
+18.4 +14.0 76 +19 +19 1016.6 976.3 +18.4 +18.2
Ю 1.7
{3.1}
+19.2 +15.0 77 +21 +21 комфорт 1016.6 976.3 +19.2 +18.4
Ю 1.8
{3.3}
+19.3 +14.0 71 +21 +21 комфорт 1016.6 976.3 +19.3 +19.0
Местоположение метеостанции Каракуль (Бухарская область, Узбекистан): широта 39.49 долгота 63.84 высота над уровнем моря 0 м.
В архиве по умолчанию представлена погода в Каракуле за последние 1-2 суток. Обновление информации о фактической погоде в базе происходит ежечасно! Архивные данные за месяц целиком и за предыдущие месяцы Вы можете получить, выбрав интересующий диапазон дат из раскрывающегося списка и нажав кнопку "Ввод!".
*Определитесь, кто Вы:
Внимание! Время в таблицах - местное (без учета летнего времени). Для получения всемирного времени необходимо вычесть поправку, которая равна 5 ч.
Смотрите также архив погоды на ближайших метеорологических станциях:
Партнеры нашего сайта:      
Пояснения к столбцам:
  • Ветер - указаны скорость ветра в м/с - средняя за 10 мин, порывы в срок и между сроками (в фигурных скобках) и направление, откуда дует ветер: С - северный,
  • СВ - северо-восточный, В - восточный, ЮВ - юго-восточный, Ю - южный, ЮЗ - юго-западный, З - западный, СЗ - северо-западный.
  • Видимость - горизонтальная дальность видимости в метрах или километрах. При видимости от 1 до 10 км при отсутствии осадков обычно наблюдается дымка, при ухудшении видимости до 1 км и менее - туман. В сухую погоду видимость может ухудшаться дымом, пылью или мглою.
  • Явления - указаны атмосферные явления, наблюдавшиеся в срок или в последний час перед сроком.
  • Солнечная радиация - мощность потока солнечного излучения на поверхность земли и предметов в Вт/м2.
  • T - Температура воздуха - температура, измеренная на высоте 2 м над землей.
  • Td - Температура точки росы - температура, при понижении до которой содержащийся в воздухе водяной пар достигнет насыщения.
  • f - Относительная влажность воздуха - влажноcть воздуха, измеренная на высоте 2 м над землей.
  • Te - Эффективная температура - температура, которую ощущает одетый по сезону человек в тени. Характеристика душности погоды. При расчете учитывается влияние влажности воздуха и скорости ветра на теплоощущения человека.
  • Tes - Эффективная температура на солнце - температура, которую ощущает человек, с поправкой на солнечный нагрев. Характеристика знойности погоды. Зависит от высоты солнца над горизонтом, облачности и скорости ветра. Ночью, в пасмурную погоду, а также при ветре 12 м/с и более поправка равна нулю.
  • P - Атмосферное давление - приведенное к уровню моря атмосферное давление.
  • Po - Атмосферное давление - измеренное на уровне метеостанции атмосферное давление.
  • Tmin - Минимальная температура - минимум температуры воздуха на высоте 2 м над землей.
  • Tmax - Максимальная температура - максимум температуры воздуха на высоте 2 м над землей.
  • R - Количество осадков - Количество выпавших осадков за период времени, мм. При наведении курсора мыши на число - период времени, за который выпало указанное количество осадков.